Regional Weather Roundup
Issued by NWS Sioux Falls, SD

Home | Current Version | Previous Version | Text Only | Print | Product List | Glossary On
Versions: 1 2 3 4 5 6 7 8 9 10 11 12 13 14 15 16 17 18 19 20 21 22 23 24 25 26 27 28 29 30 31 32 33 34 35 36 37 38 39 40 41 42 43 44 45 46 47 48 49 50
707
ASUS43 KFSD 230710
RWRFSD

WEATHER ROUNDUP FOR SE SOUTH DAKOTA/SW MINNESOTA/NW IOWA
NATIONAL WEATHER SERVICE SIOUX FALLS SD
200 AM CDT FRI JUN 23 2017

NOTE: "FAIR" INDICATES FEW OR NO CLOUDS BELOW 12,000 FEET WITH NO
SIGNIFICANT WEATHER AND OR OBSTRUCTIONS TO VISIBILITY.


SDZ038>040-050-052>070-230800-
SOUTHEAST SOUTH DAKOTA

CITY           SKY/WX    TMP DP  RH WIND       PRES   REMARKS
BROOKINGS      CLEAR     57  51  80 W8        29.85S
CHAMBERLAIN    CLEAR     62  44  50 NW8       29.94R
HURON          CLEAR     57  49  74 NW10      29.88R
MADISON        FAIR      57  46  67 W8        29.86S
MITCHELL       CLEAR     58  49  72 W9        29.89R
SIOUX FALLS    CLEAR     57  52  83 CALM      29.85S
WINNER         FAIR      56  42  59 W7        29.97S
YANKTON        CLEAR     56  51  84 W6        29.87S
$$

MNZ071-072-080-081-089-090-097-098-230800-
SOUTHWEST MINNESOTA

CITY           SKY/WX    TMP DP  RH WIND       PRES   REMARKS
FAIRMONT       CLEAR     58  55  90 W3        29.81R
JACKSON        CLEAR     55  52  88 CALM      29.83S
LUVERNE        CLEAR     55  48  76 NW3       29.85S
MARSHALL       CLEAR     62  55  77 W8        29.81R
MONTEVIDEO     CLEAR     61  55  82 NW3       29.78S
PIPESTONE      CLEAR     57  52  82 W3        29.85R
REDWOOD FALLS  CLEAR     61  53  75 W10       29.77F
TRACY          CLEAR     63  55  74 W8        29.82R
WINDOM         CLEAR     55  52  88 W5        29.82R
WORTHINGTON    CLEAR     56  49  77 W10       29.84S
$$

IAZ001>003-012>014-020>022-031-032-NEZ013-014-SDZ071-230800-
NORTHWEST IOWA

CITY           SKY/WX    TMP DP  RH WIND       PRES   REMARKS
CHEROKEE       CLEAR     58  55  88 CALM      29.84R
DENISON        CLOUDY    68  59  73 N7        29.86R
ESTHERVILLE    CLEAR     56  55  97 W6        29.81S
LE MARS        CLEAR     55  54  94 CALM      29.85S
ORANGE CITY    CLEAR     57  54  88 NW5       29.86R
SHELDON        CLEAR     54  52  94 W5        29.84R
SIOUX CITY       N/A    N/A N/A N/A MISG      29.85R
SPENCER        CLEAR     52  51  97 NW9       29.83S
STORM LAKE     CLOUDY    61  54  77 CALM      29.84S
$$

ABBREVIATIONS USED IN REMARKS
   TC - TEMPERATURE IN CELSIUS
  WCI - WIND CHILL INDEX
   HX - HEAT INDEX
  VSB - VISIBILITY





USA.gov is the U.S. government's official web portal to all federal, state and local government web resources and services.